Home > Time Zones > World Clock > Weather > U.S.A. > Knox > Past weeks

Flag for U.S.A. Weather past 2 weeks in Knox, Indiana, U.S.A.

Now
31 °F

Sunny.


Feels Like: 20 °F
Forecast: 18 / 36 °F
Wind: 16 mph from Southwest

Location: Porter County Municipal Airport

Current Time: Jan 31, 2015 at 10:40:36 AM

Latest Report: Jan 31, 2015 at 9:56 AM


Visibility: 10 mi

Pressure: 30.29 "Hg

Humidity: 73%

Dew point: 23 °F

Location of KnoxLocation

Historic Weather in Knox — Graph

°F

Knox temperature yesterday

Maximum temperature yesterday: 29 °F (at 12:56 AM)
Minimum temperature yesterday: 18 °F (at 9:56 PM)
Average temperature yesterday: 25 °F

Past Weeks' High & Low Weather Summary

 TemperatureHumidityPressure
High42 °F (Jan 24, 1:56 PM)100% (Jan 19, 8:56 AM)30.53 "Hg (Jan 19, 8:56 AM)
Low10 °F (Jan 26, 5:56 AM)36% (Jan 27, 2:56 PM)29.65 "Hg (Jan 24, 1:56 PM)
Average29 °F79%30.05 "Hg
* Reported Jan 16 8:56 AM — Jan 31 8:56 AM, Knox, Weather by CustomWeather, © 2014

Note: Actual official high and low records may vary slightly from our data, if they occured in-between our weather recording intervals... More about our weather records

Advertising

Knox weather history for previous 24 hours

 ConditionsComfort  
Time TempWeatherWind HumidityBarometerVisibility
8:56 AM
Jan 31
27 °FSunny.10 mph78%30.29 "Hg10 mi
7:56 AM24 °FSunny.9 mph81%30.30 "Hg10 mi
6:56 AM22 °FPassing clouds.6 mph85%30.31 "Hg10 mi
5:56 AM23 °FPassing clouds.6 mph81%30.32 "Hg10 mi
4:56 AM23 °FOvercast.6 mph81%30.31 "Hg10 mi
3:56 AM23 °FOvercast.5 mph81%30.33 "Hg10 mi
2:56 AM23 °FOvercast.8 mph78%30.34 "Hg10 mi
1:56 AM20 °FPassing clouds.3 mph85%30.36 "Hg10 mi
12:56 AM17 °FClear.No wind88%30.38 "Hg10 mi
11:56 PM
Jan 30
18 °FClear.3 mph84%30.40 "Hg10 mi
10:56 PM19 °FClear.5 mph81%30.42 "Hg10 mi
9:56 PM18 °FClear.3 mph84%30.43 "Hg10 mi
8:56 PM19 °FClear.No wind81%30.45 "Hg10 mi
7:56 PM22 °FClear.3 mph72%30.45 "Hg10 mi
6:56 PM21 °FClear.3 mph74%30.47 "Hg10 mi
5:56 PM23 °FClear.3 mph68%30.45 "Hg10 mi
4:56 PM26 °FClear.No wind57%30.47 "Hg10 mi
3:56 PM28 °FSunny.No wind53%30.48 "Hg10 mi
2:56 PM28 °FPassing clouds.6 mph53%30.48 "Hg10 mi
1:56 PM27 °FScattered clouds.9 mph55%30.50 "Hg10 mi
12:56 PM27 °FOvercast.5 mph58%30.50 "Hg10 mi
11:56 AM28 °FOvercast.12 mph56%30.53 "Hg10 mi
10:56 AM26 °FOvercast.10 mph57%30.53 "Hg10 mi
10:04 AM27 °FOvercast.10 mph61%30.49 "Hg10 mi
Weather by CustomWeather, © 2014

See weather overviewHow to use our weather pages